Location: Ca�n Batista
(41.4099°N, 1.7752°E)
Time: 13:43:29
(UTC+00:00)

Cosmos 1271 Rocket - Pass Details

Date: 03 March 2021
Orbit: 498 x 544 km, 81.2° (Epoch: 21 April)

Event Time Altitude Azimuth Distance (km) Brightness Sun altitude
Rises 18:29:00 0° 345° (NNW) 2,599 6.5 -8.9°
Reaches altitude 10° 18:31:09 10° 341° (NNW) 1,712 5.6 -9.3°
Maximum altitude 18:34:48 54° 264° (W) 614 3.5 -9.9°
Drops below altitude 10° 18:38:28 10° 186° (S) 1,710 5.4 -10.6°
Sets 18:40:37 0° 182° (S) 2,596 6.3 -11.0°
